Wind_Speed
80 72 63 60 61 64 62 57 50 48 48 42 33 31 33 32 32 38 37 39 39 44 44 40 35 33 30 27 28 27 27 31 36 39 40 38 38 30 33 28 30 33 33 37
82 71 63 72 68 67 65 62 61 65 62 52 43 37 34 39 34 35 40 41 43 46 43 38 36 31 30 29 27 29 31 32 35 38 41 39 33 33 30 31 33 36 36 38
81 72 76 70 72 69 62 65 69 68 66 53 45 38 36 40 39 38 39 41 42 47 42 35 30 28 30 31 26 28 33 35 35 37 37 35 33 34 33 34 37 38 40 38
87 75 76 77 72 72 66 71 74 72 67 57 46 41 39 45 42 44 40 40 45 43 39 38 39 34 30 32 30 29 31 35 33 34 33 33 34 35 36 39 40 38 37 38
78 76 76 81 68 76 68 71 75 71 69 61 52 51 43 49 48 50 41 38 42 38 39 44 43 38 33 30 32 30 31 34 34 35 37 38 39 38 42 37 35 35 42 44
83 81 81 71 76 76 75 74 76 72 73 65 56 64 49 49 54 51 44 39 40 39 44 42 41 37 33 31 32 31 32 30 32 34 36 35 35 39 39 42 45 45 46 52
82 79 72 72 72 73 71 74 78 77 74 61 65 62 49 49 55 55 49 41 40 42 44 44 43 37 30 34 33 34 31 36 32 35 32 35 36 36 41 46 46 48 52 56
86 81 70 69 72 73 77 80 82 81 75 63 62 52 46 50 56 57 56 47 39 45 46 44 43 39 34 36 35 37 34 38 34 33 36 38 38 42 48 48 51 58 60 58
86 79 73 71 74 75 77 81 79 85 74 68 56 54 41 47 58 58 57 52 40 42 43 42 39 40 38 40 38 39 40 39 38 41 40 44 41 44 48 51 52 55 59 64
88 84 79 78 78 79 80 80 82 81 73 65 56 49 41 49 58 62 59 52 46 43 44 43 45 47 42 44 41 42 40 44 44 46 48 46 49 54 59 57 55 60 61 63
91 84 83 87 78 74 78 79 82 81 72 61 50 43 43 48 56 61 59 53 51 46 44 46 48 47 46 46 40 42 44 43 45 49 49 48 48 55 59 65 61 60 64 73
88 92 93 85 83 83 80 79 80 80 66 61 56 43 46 52 56 60 59 56 53 48 43 44 47 42 44 44 43 41 43 49 52 55 53 54 53 56 63 65 66 66 70 77
90 90 92 88 83 81 80 73 76 77 76 66 65 45 53 49 58 61 62 59 53 46 45 45 42 40 45 48 44 47 50 52 56 58 59 60 57 63 67 70 70 72 80 83
93 91 88 80 70 85 83 76 75 76 76 60 56 54 55 58 62 61 63 60 52 50 50 50 49 47 46 45 46 51 53 54 60 61 63 59 61 65 68 71 75 83 89 88
100 94 75 71 78 80 80 81 79 76 61 61 42 49 55 58 63 64 61 60 58 56 52 49 49 47 51 55 54 56 59 60 59 64 65 62 68 70 75 79 86 89 88 89
95 73 76 76 73 72 73 70 70 63 56 47 48 47 54 62 65 61 59 57 57 52 54 49 49 50 56 61 60 59 63 60 63 65 70 75 81 75 79 89 89 93 91 95
89 79 74 67 68 65 71 54 55 57 55 51 46 52 64 65 65 61 57 53 55 56 55 55 54 60 58 63 63 66 69 71 67 71 75 80 80 87 89 91 93 93 99 100
91 81 77 71 75 85 60 57 56 56 55 53 52 57 64 67 64 60 54 54 57 59 55 57 57 56 62 65 68 70 72 72 71 77 82 85 85 87 89 92 95 98 100 102
96 88 82 83 82 75 68 61 65 62 56 60 59 61 62 65 62 55 54 61 60 61 60 61 65 64 66 67 69 69 72 72 79 85 88 86 87 92 98 99 101 100 106 106
100 91 85 89 85 79 68 67 72 75 56 61 62 63 67 65 58 61 63 58 58 60 63 62 64 66 71 74 77 69 72 77 88 88 89 88 93 96 99 102 103 107 108 111
106 96 86 90 84 73 76 75 74 63 63 70 69 68 66 66 71 70 64 63 58 61 66 71 73 75 76 71 70 76 83 86 86 88 88 94 97 102 104 103 108 110 113 116
103 100 95 92 83 78 76 78 81 71 72 73 71 68 62 66 66 69 70 68 70 73 74 70 73 78 80 82 86 89 87 84 85 91 98 100 104 102 103 108 113 116 119 118
104 102 92 90 80 83 86 86 86 78 76 73 70 72 73 72 72 74 74 72 71 74 76 78 80 85 87 89 89 87 89 94 96 101 106 108 106 109 111 115 115 119 120 127
109 102 98 88 86 91 93 93 90 85 81 79 80 79 82 81 79 77 78 76 76 79 81 85 88 89 91 93 96 97 99 100 104 106 106 109 111 114 115 117 119 123 126 127
108 105 101 100 93 99 97 98 93 87 87 88 82 82 81 79 82 83 84 83 84 86 89 91 91 92 92 95 98 100 103 105 107 110 108 112 114 115 116 121 123 125 129 128
110 107 109 105 104 100 105 88 92 90 89 86 90 84 84 81 81 84 85 87 86 88 89 91 93 95 97 100 101 102 105 108 111 113 116 114 115 119 123 125 129 131 134 136
Wind_Direction
245 245 248 248 250 248 258 265 255 259 262 265 271 286 281 289 285 289 291 282 283 291 294 293 292 288 296 300 298 297 301 294 286 281 275 275 278 270 275 283 283 296 303 303
244 241 245 245 247 253 259 257 256 259 257 269 280 283 278 287 281 284 283 282 285 288 291 292 291 282 288 292 295 296 309 302 290 282 283 281 276 277 278 281 289 294 296 297
252 242 241 246 251 254 258 256 256 256 261 266 276 276 280 282 284 282 280 280 280 282 282 285 288 285 285 289 295 299 307 308 296 287 285 281 281 283 283 291 292 294 295 299
252 248 245 246 249 254 253 251 252 255 258 265 275 270 279 281 285 280 280 284 285 290 280 280 286 287 282 285 294 301 307 305 292 280 279 281 288 290 295 295 297 298 297 303
247 244 243 243 247 249 251 253 255 259 264 263 270 271 266 279 275 278 279 282 284 283 282 282 285 286 280 287 295 301 309 308 291 281 281 279 282 289 291 292 297 302 308 298
243 245 247 248 248 252 253 255 257 257 259 261 261 263 271 275 278 273 271 278 278 277 278 281 284 280 279 284 295 296 306 312 304 294 288 289 293 296 294 303 301 296 292 296
246 246 245 247 246 248 252 252 254 255 256 257 256 265 275 270 273 275 271 270 275 273 276 280 279 272 278 281 289 295 300 308 306 302 299 294 297 304 308 303 299 294 293 293
240 242 242 243 244 244 245 247 249 255 255 253 255 269 275 269 265 269 270 266 276 272 273 279 275 275 279 286 287 290 298 304 305 303 301 301 300 298 300 302 296 287 288 296
241 242 241 240 241 242 245 249 250 252 256 259 261 267 261 261 262 264 266 266 272 277 279 275 275 279 283 286 284 284 299 298 303 307 302 307 308 310 309 301 299 290 290 295
241 239 235 235 236 238 243 244 248 254 257 257 257 257 264 255 259 263 264 266 268 269 273 268 268 278 283 285 285 288 299 299 300 307 312 304 299 298 299 307 298 291 292 292
238 240 235 234 238 242 245 247 250 254 255 257 258 259 257 255 258 263 264 264 265 267 273 274 272 276 283 285 284 290 293 296 295 305 306 304 305 301 299 302 305 298 294 295
237 240 239 236 236 238 240 242 247 253 255 253 251 255 253 259 255 257 260 260 261 268 278 283 286 283 279 278 287 287 293 295 301 306 304 307 303 300 298 301 305 301 300 304
235 237 234 233 235 238 243 246 249 252 250 252 253 249 250 248 251 256 260 261 262 273 274 278 277 274 275 279 282 289 294 298 301 304 303 304 301 297 299 301 299 300 310 310
227 228 233 237 239 237 237 238 243 246 247 250 254 252 246 243 243 249 258 265 265 268 266 270 274 273 277 280 284 286 292 296 301 301 299 299 298 297 297 297 302 306 309 311
227 232 236 234 236 240 242 243 246 251 257 256 243 241 243 243 249 253 254 257 260 264 267 273 276 277 276 279 281 288 295 302 297 296 297 297 297 297 295 296 303 309 308 311
228 228 225 225 234 239 241 243 246 251 246 243 238 237 242 244 245 246 248 255 258 266 270 275 276 282 277 280 284 288 299 297 295 295 293 297 299 299 295 301 303 306 308 310
223 220 223 220 234 235 238 242 240 240 242 238 231 234 238 242 242 244 249 259 259 263 265 268 276 276 279 278 283 291 296 297 291 288 292 295 295 297 299 299 305 306 307 309
213 218 220 221 224 230 229 234 236 236 236 237 236 237 240 239 241 245 252 254 256 259 263 270 276 275 274 278 287 293 293 291 286 287 293 295 296 299 302 303 305 306 308 312
213 217 217 221 226 228 226 237 235 239 239 242 243 243 241 239 244 248 252 254 258 257 266 277 273 270 275 284 288 289 289 282 286 290 295 296 299 301 304 304 305 306 311 314
212 216 220 227 231 231 231 235 243 245 240 244 240 238 237 240 245 248 252 255 258 261 268 270 273 279 280 285 289 283 278 283 290 292 295 296 299 301 302 303 305 307 311 313
214 217 222 227 227 230 228 236 238 235 235 237 243 241 239 243 252 251 249 255 258 258 262 270 278 283 284 286 279 280 285 292 295 295 294 298 301 301 303 304 305 307 308 311
215 216 222 224 226 228 233 232 236 235 238 241 247 250 244 243 241 243 248 252 256 260 266 273 279 282 283 283 284 286 290 291 292 293 297 298 300 302 302 303 305 307 310 311
211 216 221 225 224 228 231 231 235 233 238 245 245 244 242 245 246 251 255 260 265 265 269 274 277 279 282 283 285 287 288 290 292 294 295 297 298 300 301 304 306 307 310 312
213 216 220 223 227 229 229 232 234 238 245 246 242 240 242 247 254 261 264 267 267 269 273 276 278 280 281 282 284 287 289 290 291 293 293 295 299 299 302 304 306 309 311 313
214 217 221 221 228 230 230 233 236 240 244 239 240 241 246 251 257 260 262 266 269 270 274 275 277 280 282 283 284 285 288 290 292 294 294 297 299 301 303 305 307 307 311 312
215 218 219 220 224 229 230 232 235 238 238 241 240 244 250 252 253 258 260 263 269 271 271 273 276 280 281 283 285 287 289 292 293 293 295 297 299 301 303 304 306 308 309 310
Height
10734 10745 10765 10757 10758 10759 10764 10773 10775 10773 10776 10785 10788 10792 10787 10787 10786 10782 10778 10772 10766 10763 10761 10758 10758 10758 10758 10757 10754 10751 10752 10751 10748 10747 10746 10747 10745 10743 10742 10740 10739 10737 10735 10733
10715 10744 10743 10737 10744 10750 10758 10762 10762 10757 10762 10775 10779 10784 10780 10776 10777 10775 10771 10765 10759 10755 10753 10752 10751 10751 10753 10751 10747 10744 10744 10743 10741 10741 10739 10737 10736 10735 10734 10733 10731 10729 10725 10723
10707 10729 10723 10724 10733 10744 10749 10751 10746 10747 10746 10764 10769 10775 10772 10766 10767 10766 10764 10759 10752 10747 10747 10747 10746 10746 10746 10745 10743 10740 10737 10736 10734 10733 10731 10730 10729 10727 10725 10723 10721 10717 10715 10713
10688 10708 10716 10715 10726 10725 10733 10730 10730 10733 10739 10753 10758 10767 10765 10757 10759 10755 10754 10751 10745 10740 10740 10739 10738 10739 10738 10737 10736 10734 10732 10729 10728 10727 10725 10723 10721 10719 10717 10714 10712 10709 10707 10704
10689 10691 10694 10696 10716 10704 10724 10715 10716 10725 10731 10741 10748 10746 10758 10748 10746 10744 10745 10743 10738 10734 10732 10730 10729 10729 10728 10728 10728 10726 10724 10723 10721 10720 10718 10716 10714 10712 10710 10707 10703 10700 10697 10693
10666 10673 10674 10698 10694 10697 10699 10705 10705 10711 10714 10730 10736 10727 10749 10739 10730 10732 10736 10734 10732 10726 10722 10721 10720 10719 10720 10720 10719 10718 10716 10714 10712 10712 10710 10707 10705 10703 10701 10698 10695 10692 10688 10684
10650 10660 10668 10673 10678 10680 10687 10690 10688 10691 10696 10722 10717 10720 10740 10732 10720 10717 10720 10722 10722 10718 10714 10712 10712 10712 10713 10712 10711 10710 10707 10705 10704 10702 10700 10698 10696 10694 10692 10689 10684 10680 10677 10672
10623 10634 10654 10663 10664 10665 10663 10661 10666 10675 10683 10702 10706 10721 10727 10718 10711 10703 10703 10711 10713 10707 10704 10702 10701 10703 10703 10702 10701 10699 10697 10696 10694 10692 10689 10687 10686 10684 10681 10677 10672 10668 10663 10657
10612 10623 10632 10641 10642 10644 10648 10650 10657 10647 10674 10687 10702 10708 10711 10707 10691 10690 10690 10697 10701 10699 10696 10693 10691 10690 10691 10691 10691 10690 10688 10686 10683 10681 10679 10677 10675 10672 10668 10663 10659 10653 10648 10641
10589 10599 10610 10615 10614 10623 10628 10637 10635 10642 10660 10670 10690 10693 10699 10692 10680 10676 10679 10684 10687 10688 10686 10684 10682 10679 10679 10680 10681 10680 10678 10676 10673 10670 10669 10667 10664 10660 10655 10650 10644 10637 10632 10626
10568 10581 10592 10588 10607 10619 10616 10623 10625 10627 10640 10659 10674 10685 10684 10679 10670 10663 10667 10672 10674 10675 10675 10673 10672 10672 10671 10670 10670 10669 10668 10665 10663 10661 10659 10655 10651 10646 10641 10636 10630 10624 10618 10610
10565 10556 10560 10580 10585 10591 10596 10605 10611 10613 10640 10646 10656 10678 10669 10666 10655 10649 10653 10657 10661 10662 10662 10661 10662 10661 10660 10659 10658 10657 10655 10653 10650 10648 10645 10641 10636 10631 10626 10620 10614 10607 10599 10591
10539 10536 10542 10552 10567 10586 10594 10599 10599 10606 10614 10637 10641 10671 10650 10650 10640 10637 10637 10644 10650 10652 10652 10651 10650 10648 10648 10646 10645 10644 10641 10639 10637 10633 10629 10625 10619 10614 10609 10603 10596 10589 10582 10573
10501 10512 10526 10551 10577 10556 10566 10573 10580 10582 10592 10628 10635 10640 10638 10630 10628 10628 10626 10631 10638 10639 10639 10638 10637 10636 10635 10633 10632 10630 10627 10624 10622 10618 10614 10608 10604 10599 10593 10586 10579 10571 10563 10552
10483 10503 10523 10542 10541 10543 10552 10561 10567 10572 10600 10600 10627 10621 10614 10618 10616 10616 10620 10620 10620 10622 10626 10626 10624 10624 10622 10620 10618 10615 10613 10610 10607 10602 10597 10592 10588 10582 10576 10569 10561 10552 10542 10532
10470 10498 10506 10517 10523 10528 10535 10547 10559 10569 10576 10590 10597 10607 10604 10597 10595 10602 10603 10606 10609 10612 10612 10612 10611 10609 10608 10606 10604 10601 10599 10595 10591 10587 10582 10577 10572 10566 10560 10552 10543 10533 10522 10512
10458 10478 10486 10508 10506 10509 10516 10549 10549 10554 10561 10572 10583 10585 10574 10581 10585 10588 10591 10596 10598 10599 10598 10596 10597 10597 10595 10592 10589 10587 10584 10580 10576 10572 10567 10561 10555 10549 10542 10534 10524 10513 10503 10491
10440 10459 10469 10483 10486 10486 10536 10529 10533 10538 10544 10554 10564 10565 10562 10565 10571 10577 10582 10584 10584 10582 10581 10583 10584 10583 10581 10578 10576 10572 10569 10566 10561 10556 10551 10545 10538 10532 10523 10515 10505 10494 10482 10467
10421 10437 10448 10458 10470 10491 10506 10516 10516 10521 10534 10536 10547 10549 10553 10555 10560 10569 10568 10567 10566 10568 10570 10571 10570 10567 10566 10563 10560 10557 10553 10550 10545 10540 10533 10527 10520 10513 10504 10495 10484 10471 10459 10446
10403 10418 10428 10442 10452 10475 10491 10497 10496 10505 10532 10525 10527 10530 10536 10539 10553 10551 10545 10550 10554 10556 10556 10555 10553 10553 10549 10546 10544 10540 10537 10533 10529 10522 10516 10509 10500 10492 10483 10473 10461 10449 10436 10423
10385 10397 10410 10427 10438 10459 10474 10476 10483 10496 10509 10501 10504 10515 10522 10529 10532 10529 10534 10535 10538 10538 10537 10537 10536 10535 10531 10529 10526 10524 10521 10515 10509 10503 10495 10488 10480 10471 10461 10450 10439 10427 10414 10402
10369 10383 10396 10407 10422 10441 10455 10462 10472 10479 10481 10487 10492 10499 10503 10508 10511 10513 10516 10518 10519 10520 10520 10520 10519 10516 10514 10511 10508 10504 10499 10494 10489 10481 10474 10466 10457 10448 10438 10427 10417 10405 10391 10378
10350 10366 10381 10393 10416 10424 10431 10438 10448 10458 10465 10472 10479 10483 10486 10489 10493 10496 10497 10498 10499 10500 10500 10499 10498 10496 10494 10491 10488 10482 10479 10472 10465 10459 10453 10445 10435 10426 10415 10405 10394 10383 10369 10355
10334 10350 10363 10376 10392 10403 10412 10421 10430 10437 10446 10455 10462 10466 10469 10470 10473 10475 10477 10478 10480 10480 10480 10479 10477 10475 10472 10469 10464 10460 10455 10450 10445 10437 10430 10422 10414 10403 10392 10381 10370 10357 10345 10332
10317 10330 10348 10361 10374 10380 10388 10398 10408 10418 10426 10434 10440 10445 10450 10454 10456 10456 10458 10460 10462 10462 10461 10459 10456 10453 10449 10446 10442 10438 10434 10428 10421 10414 10406 10398 10387 10378 10369 10357 10345 10333 10320 10308
10302 10319 10330 10344 10348 10356 10366 10376 10389 10396 10404 10413 10422 10427 10431 10434 10437 10439 10441 10442 10443 10442 10440 10437 10435 10432 10428 10424 10420 10415 10410 10404 10397 10389 10381 10371 10362 10352 10343 10333 10320 10306 10292 10280